Cloud_Cover
5 5 5 5 61 81 99 100 9 89 57 6 52 62 2 95 65 7 39 73 5 17 13 100 100 100 100 100 100 100 100 100 100 62 13 88 95 84 14 5 6 0 2 0 2 0 5 8 4
7 36 9 68 70 98 100 99 4 16 14 62 11 36 91 42 70 8 11 0 0 23 98 100 100 100 100 100 100 100 94 100 15 7 89 100 100 84 16 9 8 15 0 0 0 2 25 24 11
9 58 9 100 100 100 98 57 3 2 3 82 60 1 74 89 78 100 82 5 21 45 90 100 100 100 100 100 100 100 100 97 38 100 100 100 48 11 15 5 11 3 0 0 0 5 84 27 5
73 47 50 55 100 40 91 10 5 100 76 0 3 98 0 0 96 8 86 84 21 26 100 100 100 83 100 100 100 100 97 74 100 24 98 26 33 83 6 0 0 0 0 1 0 5 99 6 5
79 100 77 100 98 100 23 24 20 98 7 1 78 89 0 5 83 34 15 100 3 4 60 100 100 100 100 100 95 98 96 81 65 100 100 67 100 17 5 4 17 1 2 0 0 5 22 29 100
67 56 89 100 100 6 95 13 12 54 37 4 85 3 0 0 0 48 66 92 87 10 56 100 100 100 89 100 100 98 100 100 100 100 94 100 100 6 6 10 3 6 0 0 2 5 88 100 100
95 96 65 100 100 58 92 57 100 75 46 39 33 99 15 0 0 74 100 99 80 68 87 100 100 100 98 100 100 100 82 100 100 76 100 100 76 99 6 5 5 5 2 0 4 5 100 100 100
100 91 100 100 99 100 44 19 3 66 88 2 0 83 0 0 0 46 100 99 100 100 100 33 100 100 100 100 100 100 90 100 86 100 100 100 22 100 96 5 2 5 2 0 2 40 100 100 100
89 100 40 100 22 100 73 100 20 2 99 1 0 2 0 1 0 49 95 5 38 26 100 100 100 79 78 100 100 100 100 100 100 100 100 100 100 36 5 5 2 5 1 0 0 40 100 100 100
40 100 100 75 55 78 48 16 15 40 84 50 7 80 21 0 9 53 56 91 68 27 81 76 88 100 100 77 100 97 100 100 100 100 100 100 56 39 8 5 1 5 0 0 0 25 77 100 100
12 37 27 73 16 8 26 9 8 100 17 100 100 38 48 0 86 96 15 5 98 100 52 96 100 100 100 100 100 100 100 100 97 100 100 100 100 100 36 10 5 4 0 40 100 98 100 100 93
57 10 4 0 3 79 64 27 8 92 51 97 81 5 35 1 13 97 100 8 100 80 87 100 100 100 100 100 100 100 100 100 91 100 96 100 92 100 100 15 5 59 11 97 100 100 100 100 100
7 32 0 1 45 0 3 20 34 93 5 5 5 5 30 1 14 79 38 58 100 100 56 100 100 100 100 100 100 100 100 100 76 100 100 100 100 100 40 89 21 22 90 100 71 99 100 100 60
24 5 8 0 26 40 43 26 45 37 5 14 63 100 50 1 12 37 69 57 69 36 100 100 100 100 77 100 100 100 100 100 92 46 100 100 100 100 33 20 26 100 97 100 47 2 24 100 66
0 13 61 98 45 85 33 100 100 100 42 16 45 99 32 5 0 15 39 100 5 94 100 19 100 34 96 100 100 100 100 100 95 100 100 100 100 100 86 69 5 20 100 100 56 5 5 5 99
0 6 73 99 100 28 100 100 100 100 97 100 100 96 80 94 0 0 2 0 5 79 90 80 100 62 100 100 100 100 100 98 100 100 100 100 100 100 50 5 23 86 95 55 90 5 28 18 81
0 29 99 22 6 3 15 100 100 100 83 100 100 19 93 80 100 40 5 2 0 5 88 33 100 100 100 100 100 100 100 100 100 100 100 100 100 100 93 95 57 98 47 96 97 69 34 98 17
100 98 88 14 50 2 0 4 39 100 100 90 100 98 39 100 100 100 30 55 85 0 1 14 13 100 99 100 100 100 100 100 100 82 100 100 100 100 85 21 53 9 5 31 16 6 27 15 35
5 4 4 6 5 0 0 4 5 34 100 100 43 96 100 16 100 100 100 3 100 10 0 4 5 42 100 100 100 100 100 100 100 100 89 93 100 100 100 6 5 19 57 100 100 100 21 47 96
0 0 0 0 5 0 0 0 0 59 86 44 100 43 90 24 100 100 100 14 95 31 0 0 6 93 100 100 100 98 78 61 65 100 92 75 82 15 56 28 20 5 78 100 100 31 34 100 12
0 0 0 5 16 0 0 0 5 77 62 100 42 100 100 82 5 100 100 33 2 97 5 0 0 52 100 100 100 100 83 82 100 49 94 57 23 47 5 5 88 4 5 24 86 66 12 5 38
0 0 0 5 5 5 4 3 2 20 4 88 100 100 98 100 87 77 100 66 22 3 48 5 0 0 69 17 100 100 80 90 100 87 25 73 14 29 93 69 5 67 74 2 96 100 98 30 12
4 0 0 0 5 5 5 5 5 78 5 5 5 5 62 100 31 82 99 100 88 84 4 19 5 2 0 5 5 13 5 81 91 33 82 68 5 12 100 100 47 5 5 5 55 100 100 5 30
63 100 41 1 1 4 5 5 4 99 92 57 5 6 77 60 100 60 64 100 100 100 80 12 46 78 34 13 0 0 5 5 5 5 5 5 5 5 73 100 100 100 31 0 0 0 2 5 4
100 100 100 80 96 61 13 11 94 67 26 5 5 5 4 66 39 97 21 60 87 100 100 100 4 84 85 45 5 1 12 5 75 34 5 5 5 5 5 58 100 100 98 40 4 1 1 4 0
5 5 44 5 51 100 71 100 54 5 2 4 5 5 5 3 10 76 99 97 56 100 100 100 56 5 99 99 25 23 70 7 15 15 37 15 94 4 93 89 90 51 13 35 16 5 5 5 5
22 95 6 5 5 5 32 98 100 74 56 5 5 5 5 5 5 4 97 100 100 16 78 100 92 50 44 90 100 99 74 28 5 5 5 10 100 99 92 82 86 5 5 5 5 5 5 5 7
9 24 26 31 9 36 43 17 100 96 17 11 5 5 5 5 5 5 2 16 100 100 78 38 100 100 94 99 40 84 100 100 58 5 5 4 94 100 100 92 29 90 31 9 87 5 3 5 15
51 21 5 5 5 72 30 89 37 76 61 57 5 4 5 8 0 3 5 4 1 80 100 78 96 100 100 78 64 100 6 4 3 4 0 0 64 100 100 100 100 100 90 53 90 96 48 5 5
38 70 28 77 98 5 5 33 70 100 67 8 0 0 0 5 1 0 0 3 5 5 5 80 61 100 100 100 100 100 81 3 3 5 47 0 5 62 100 100 48 100 100 48 100 100 100 98 96